Cedar, IA

5:46 PM CDT on August 30, 2016 (GMT -0500)
Oskaloosa Municipal

Weather History for KOOA - December, 2013

Change the Weather History Date:

Saturday, December 14, 2013

  Actual Average (KOTM) Record (KOTM)
Temperature  
Mean Temperature 18 °F 26 °F  
Max Temperature 25 °F 35 °F 61 °F (2008)
Min Temperature 12 °F 17 °F -10 °F (1985)
Degree Days  
Heating Degree Days 46 39  
Month to date heating degree days 513  
Since 1 July heating degree days 1811  
Cooling Degree Days 0 0  
Month to date cooling degree days 0  
Year to date cooling degree days 938  
Moisture  
Dew Point 17 °F    
Average Humidity 85    
Maximum Humidity 91    
Minimum Humidity 78    
Precipitation  
Precipitation 0.00 in 0.04 in 1.08 in (1971)
Month to date precipitation 0.73  
Year to date precipitation 36.43  
Sea Level Pressure  
Sea Level Pressure 30.07 in    
Wind  
Wind Speed 14 mph (NNW)    
Max Wind Speed 22 mph    
Max Gust Speed 23 mph    
Visibility 7 miles    
Events Snow    
T = Trace of Precipitation, MM = Missing Value Source: NWS Daily Summary

Daily Weather History Graph

Daily Weather History Graph

Search for Another Location

Airport or City:

Trip Planner

Search our weather history database for the weather conditions in past years. The results will help you decide how hot, cold, wet, or windy it might be!

Date:

Astronomy

Dec. 14, 2013 Rise Set
Actual Time 7:27 AM CST 4:41 PM CST
Civil Twilight 6:56 AM CST 5:12 PM CST
Nautical Twilight 6:22 AM CST 5:47 PM CST
Astronomical Twilight 5:48 AM CST 6:21 PM CST
Moon 3:04 PM CST (12/14) 4:48 AM CST (12/14)
Length of Visible Light 10h 16m
Length of Day
9h 13m
Waxing Gibbous, 94% of the Moon is Illuminated
Dec 14
Waxing Gibbous
Dec 17
Full
Dec 25
Last Quarter
Jan 1
New
Jan 7
First Quarter

Hourly Weather History & Observations

Time (CST) Temp. Windchill Dew Point Humidity Pressure Visibility Wind Dir Wind Speed Gust Speed Precip Events Conditions
12:15 AM 24.8 °F 12.4 °F 22.1 °F 89% 30.01 in 5.0 mi NE 15.0 mph - N/A Snow Light Snow
12:35 AM 25.3 °F 13.1 °F 22.6 °F 89% 30.00 in 5.0 mi NE 15.0 mph - N/A   Overcast
12:55 AM 25.5 °F 13.3 °F 22.8 °F 89% 29.99 in 5.0 mi NE 15.0 mph 20.7 mph N/A   Overcast
1:15 AM 25.7 °F 14.0 °F 23.0 °F 89% 29.99 in 4.0 mi NE 13.8 mph - N/A   Overcast
1:35 AM 25.7 °F 13.5 °F 23.0 °F 89% 29.99 in 4.0 mi NE 15.0 mph - N/A   Overcast
1:55 AM 25.7 °F 13.5 °F 22.8 °F 89% 29.99 in 5.0 mi NE 15.0 mph 19.6 mph N/A   Overcast
2:15 AM 25.5 °F 13.8 °F 22.5 °F 88% 30.00 in 5.0 mi NE 13.8 mph - N/A   Overcast
2:35 AM 25.2 °F 12.0 °F 21.9 °F 87% 30.00 in 7.0 mi NE 17.3 mph 21.9 mph N/A   Overcast
2:55 AM 25.2 °F 13.3 °F 21.9 °F 87% 30.00 in 7.0 mi NNE 13.8 mph 20.7 mph N/A   Overcast
3:15 AM 23.9 °F 8.8 °F 20.8 °F 88% 30.00 in 5.0 mi NNE 21.9 mph - N/A   Overcast
3:35 AM 23.0 °F 8.7 °F 20.3 °F 89% 30.00 in 5.0 mi NNE 18.4 mph 23.0 mph N/A   Overcast
3:55 AM 22.6 °F 9.6 °F 19.8 °F 89% 30.00 in 5.0 mi NNE 15.0 mph - N/A   Overcast
4:15 AM 22.6 °F 8.7 °F 19.8 °F 89% 30.00 in 5.0 mi NNE 17.3 mph - N/A   Overcast
4:35 AM 22.3 °F 8.7 °F 19.4 °F 89% 30.00 in 7.0 mi NNE 16.1 mph 20.7 mph N/A   Overcast
4:55 AM 22.1 °F 9.5 °F 19.4 °F 89% 30.00 in 7.0 mi NNE 13.8 mph 19.6 mph N/A   Overcast
5:15 AM 22.1 °F 9.5 °F 19.4 °F 89% 30.00 in 7.0 mi NNE 13.8 mph 21.9 mph N/A   Overcast
5:35 AM 22.1 °F 8.9 °F 19.4 °F 89% 30.01 in 7.0 mi North 15.0 mph 18.4 mph N/A   Overcast
5:55 AM 21.7 °F 9.0 °F 19.0 °F 89% 30.02 in 7.0 mi North 13.8 mph - N/A   Overcast
6:15 AM 21.2 °F 7.8 °F 18.5 °F 89% 30.03 in 5.0 mi North 15.0 mph - N/A   Overcast
6:35 AM 21.2 °F 8.3 °F 18.7 °F 90% 30.04 in 5.0 mi North 13.8 mph - N/A   Overcast
6:55 AM 21.2 °F 8.3 °F 18.9 °F 91% 30.05 in 5.0 mi North 13.8 mph - N/A   Overcast
7:15 AM 21.2 °F 8.9 °F 18.7 °F 90% 30.05 in 5.0 mi North 12.7 mph - N/A   Overcast
7:35 AM 21.2 °F 8.3 °F 18.5 °F 89% 30.06 in 5.0 mi North 13.8 mph - N/A   Overcast
7:55 AM 21.0 °F 7.6 °F 18.3 °F 89% 30.06 in 5.0 mi North 15.0 mph - N/A   Overcast
8:15 AM 20.8 °F 7.3 °F 18.1 °F 89% 30.06 in 7.0 mi North 15.0 mph - N/A   Overcast
8:35 AM 21.0 °F 8.6 °F 18.1 °F 89% 30.06 in 5.0 mi North 12.7 mph - N/A   Overcast
8:55 AM 21.2 °F 8.3 °F 18.3 °F 89% 30.07 in 5.0 mi North 13.8 mph - N/A   Overcast
9:15 AM 21.4 °F 9.7 °F 18.3 °F 88% 30.07 in 5.0 mi North 11.5 mph - N/A   Overcast
9:35 AM 21.6 °F 9.3 °F 18.3 °F 87% 30.08 in 5.0 mi North 12.7 mph - N/A   Overcast
9:55 AM 21.7 °F 9.0 °F 18.3 °F 87% 30.08 in 5.0 mi North 13.8 mph - N/A   Overcast
10:15 AM 22.1 °F 8.9 °F 18.5 °F 86% 30.10 in 5.0 mi North 15.0 mph - N/A   Overcast
10:35 AM 21.7 °F 8.0 °F 18.1 °F 86% 30.09 in 5.0 mi North 16.1 mph - N/A   Overcast
10:55 AM 21.7 °F 8.0 °F 18.0 °F 85% 30.09 in 5.0 mi North 16.1 mph - N/A   Overcast
11:15 AM 21.7 °F 8.5 °F 18.0 °F 85% 30.09 in 5.0 mi North 15.0 mph - N/A   Overcast
11:35 AM 21.6 °F 7.8 °F 17.8 °F 85% 30.09 in 5.0 mi North 16.1 mph - N/A   Overcast
11:55 AM 21.9 °F 8.2 °F 18.0 °F 85% 30.07 in 5.0 mi North 16.1 mph - N/A   Overcast
12:15 PM 21.9 °F 10.4 °F 18.1 °F 85% 30.07 in 5.0 mi NNW 11.5 mph - N/A   Overcast
12:35 PM 22.1 °F 10.0 °F 18.1 °F 85% 30.07 in 5.0 mi NNW 12.7 mph - N/A   Overcast
12:55 PM 21.7 °F 8.0 °F 17.8 °F 85% 30.07 in 5.0 mi NNW 16.1 mph - N/A   Overcast
1:15 PM 21.7 °F 9.0 °F 17.6 °F 84% 30.07 in 7.0 mi NNW 13.8 mph - N/A   Overcast
1:35 PM 21.7 °F 9.0 °F 17.2 °F 83% 30.07 in 7.0 mi NNW 13.8 mph - N/A   Overcast
1:55 PM 21.9 °F 9.2 °F 17.2 °F 82% 30.07 in 7.0 mi NNW 13.8 mph - N/A   Overcast
2:15 PM 21.9 °F 8.2 °F 17.2 °F 82% 30.07 in 7.0 mi NNW 16.1 mph - N/A   Overcast
2:35 PM 21.7 °F 9.0 °F 16.7 °F 81% 30.07 in 7.0 mi NNW 13.8 mph - N/A   Overcast
2:55 PM 21.7 °F 9.0 °F 16.7 °F 81% 30.07 in 10.0 mi NNW 13.8 mph - N/A   Overcast
3:15 PM 21.9 °F 7.3 °F 16.7 °F 80% 30.08 in 7.0 mi NNW 18.4 mph - N/A   Overcast
3:35 PM 21.9 °F 9.8 °F 16.7 °F 80% 30.09 in 10.0 mi NW 12.7 mph 19.6 mph N/A   Overcast
3:55 PM 21.9 °F 8.2 °F 16.7 °F 80% 30.10 in 7.0 mi NW 16.1 mph - N/A   Overcast
4:15 PM 21.7 °F 8.5 °F 16.5 °F 80% 30.09 in 10.0 mi NW 15.0 mph - N/A   Overcast
4:35 PM 21.6 °F 8.2 °F 16.5 °F 81% 30.10 in 10.0 mi NW 15.0 mph - N/A   Overcast
4:55 PM 21.6 °F 9.9 °F 16.5 °F 81% 30.10 in 10.0 mi NW 11.5 mph - N/A   Overcast
5:15 PM 21.2 °F 8.9 °F 16.2 °F 81% 30.11 in 7.0 mi NW 12.7 mph - N/A   Overcast
5:35 PM 20.3 °F 7.2 °F 15.4 °F 81% 30.12 in 10.0 mi NW 13.8 mph 20.7 mph N/A   Overcast
5:55 PM 19.9 °F 6.7 °F 14.9 °F 81% 30.12 in 10.0 mi NW 13.8 mph 19.6 mph N/A   Overcast
6:15 PM 19.0 °F 5.0 °F 13.1 °F 78% 30.12 in 10.0 mi NW 15.0 mph - N/A   Overcast
6:35 PM 18.0 °F 6.1 °F 12.6 °F 79% 30.13 in 10.0 mi NW 10.4 mph - N/A   Overcast
6:55 PM 16.7 °F 5.3 °F 11.8 °F 81% 30.14 in 10.0 mi NW 9.2 mph - N/A   Overcast
7:15 PM 15.8 °F 4.2 °F 11.1 °F 82% 30.13 in 10.0 mi WNW 9.2 mph - N/A   Scattered Clouds
7:35 PM 14.9 °F 1.6 °F 10.4 °F 82% 30.14 in 10.0 mi WNW 11.5 mph - N/A   Clear
7:55 PM 14.0 °F 0.5 °F 10.0 °F 84% 30.14 in 10.0 mi WNW 11.5 mph - N/A   Clear
8:15 PM 13.8 °F 1.0 °F 9.9 °F 84% 30.14 in 10.0 mi WNW 10.4 mph - N/A   Clear
8:35 PM 13.8 °F 1.0 °F 9.5 °F 83% 30.15 in 10.0 mi WNW 10.4 mph - N/A   Clear
8:55 PM 13.6 °F 0.7 °F 9.5 °F 84% 30.15 in 10.0 mi WNW 10.4 mph - N/A   Clear
9:15 PM 13.6 °F 1.6 °F 9.1 °F 82% 30.14 in 10.0 mi WNW 9.2 mph - N/A   Clear
9:35 PM 12.7 °F -0.4 °F 8.6 °F 84% 30.14 in 10.0 mi WNW 10.4 mph - N/A   Clear
9:55 PM 13.3 °F 1.1 °F 9.3 °F 84% 30.14 in 10.0 mi WNW 9.2 mph - N/A   Scattered Clouds
10:15 PM 15.1 °F 2.5 °F 11.1 °F 84% 30.14 in 10.0 mi WNW 10.4 mph - N/A   Overcast
10:35 PM 15.8 °F -0.2 °F 11.5 °F 83% 30.13 in 10.0 mi NW 17.3 mph 23.0 mph N/A Snow Light Snow
10:55 PM 15.8 °F 1.4 °F 11.3 °F 82% 30.13 in 7.0 mi WNW 13.8 mph - N/A Snow Light Snow
11:15 PM 16.0 °F 0.1 °F 11.3 °F 82% 30.13 in 10.0 mi WNW 17.3 mph - N/A Snow Light Snow
11:35 PM 16.2 °F 1.3 °F 11.3 °F 81% 30.13 in 10.0 mi WNW 15.0 mph - N/A Snow Light Snow
11:55 PM 16.5 °F 0.3 °F 11.5 °F 81% 30.12 in 10.0 mi WNW 18.4 mph - N/A   Overcast